sat.trackr.live / text

‹ back to catalog

STARLINK-34101

NORAD 63812 · 2025-092J

PAYLOAD ACTIVE UNKNOWN

§ Identity

Operator
Country
US
Launch date
2025-05-04
Launch site
AFETR
Launch vehicle
Mass (kg)
RCS (m²)

Purposes: comms

External: N2YO · Heavens-Above · Gunter

§ Orbital elements

Epoch: 2026-05-25T03:43:58.878048Z

Period
94.27 min
Inclination
42.9978°
Eccentricity
0.0000636
Mean motion
15.27595165 rev/d
Perigee alt
482.6 km
Apogee alt
483.4 km
Semi-major
6,861.1 km
B*
6.9046e-4
RAAN
100.3094°
Arg perigee
248.6751°
Mean anomaly
111.4033°
Rev number
6,025

§ Raw data

STARLINK-341011 63812U 25092J   26145.15554257  .00018795  00000+0  69046-3 0  99972 63812  42.9978 100.3094 0000636 248.6751 111.4033 15.27595165 60258

JSON: /api/v1/satellites/63812 · /tle

For live sub-satellite position, see the globe view (requires WebGL).

§ Visibility from observer

Set your observer location to see the next 7 days of passes ≥ 10°. The values pass through the URL so the page stays shareable.

No JS? Fill the form by hand. The geolocation button needs JavaScript.